Location: Gälforsberget
(66.6500°N, 22.4167°E)
Time: 11:13:05
(UTC+00:00)

Cosmos 2333 - Pass Details

Date: 11 April 2026
Orbit: 829 x 863 km, 70.9° (Epoch: 10 May)

Event Time Altitude Azimuth Distance (km) Brightness Sun altitude
Rises 19:12:24 0° 211° (SSW) 3,369 7.2 -6.7°
Reaches altitude 10° 19:14:51 10° 208° (SSW) 2,438 6.5 -6.9°
Maximum altitude 19:20:19 59° 130° (SE) 962 4.2 -7.3°
Drops below altitude 10° 19:25:50 10° 53° (NE) 2,458 6.5 -7.7°
Sets 19:28:19 0° 50° (NE) 3,399 7.3 -7.9°
